Location: N�rnberg
(49.4471°N, 11.0632°E)
Time: 10:19:38
(UTC+01:00)

Tiangong - Pass Details

Date: 16 February 2026
Orbit: 381 x 391 km, 41.5° (Epoch: 7 March)

Event Time Altitude Azimuth Distance (km) Brightness Sun altitude
Rises 20:09:14 0° 256° (WSW) 2,253 2.8 -25.3°
Reaches altitude 10° 20:11:56 10° 231° (SW) 1,396 1.1 -25.7°
Enters shadow 20:12:14 11° 226° (SW) 1,329 1.0 -25.7°
